THORAD AGENA D DEB

Satellite information

Favourite Embed

Satellite Type and Status

DEBRISIN ORBIT

Key statistics

Satellite THORAD AGENA D DEB at a glance.

Uptime

20424

Days in orbit

Revolutions

≈ 14.2

Per day

Orbit

LEO

Low Earth Orbit

Inclination

70.1

Latest

Satellite identification and parameters

Extended collection of information and parameters for THORAD AGENA D DEB.

Object identification

Identified? True

Debris? True

Object name: THORAD AGENA D DEB

International designator: 1969-082CF

Object number (NORAD): 4216

Object ID (CCSDS): 4216

Country: UNITED STATES OF AMERICA (US)

Current information (Y/N): Y

RCS size: LARGE

Orbital parameters

Period: 101.092 minutes

Inclination: 70.1085 deg

SMA: 7188.479 km

Apoapsis: 844.116 km

Periapsis: 776.572 km

RAAN: 328.0554 deg

Eccentricy: 0.00469811

Argument of periapsis: 177.4196 deg

Mean anomaly: 182.7177 deg

Mean motion: 14.24450114 rev/day

Mean motion (dot): 0.00000557 rev/day2

B* drag term: 0.00026135117 1/REarth

Two-line elements (TLE)

Creation date: Aug. 31, 2025, 2:26 a.m.

Reference frame: TEME

Reference center: EARTH

Epoch: Aug. 30, 2025, 6:10 p.m. UTC

TLE line 0: 0 THORAD AGENA D DEB

TLE line 1: 1 04216U 69082CF 25242.75718484 .00000557 00000-0 26135-3 0 9994

TLE line 2: 2 04216 70.1085 328.0554 0046981 177.4196 182.7177 14.24450114119994

Live tracking on map

Real-time ground track for satellite THORAD AGENA D DEB.

In-orbit conjunctions

A list of the most updated potential collisions computed for object THORAD AGENA D DEB.

Target Orbit TCA Probability of collision Miss distance Type
CZ-6A DEB LEO 2025-06-27 04:41:57 0.0001663468 107.0 (m) DEBRIS
FENGYUN 1C DEB SSO 2025-04-22 02:09:54 0.0001146963 92.0 (m) DEBRIS
CZ-6A DEB SSO 2024-11-09 22:15:20 0.003249572 233.0 (m) DEBRIS

Associated space launch

Poppy was the follow-on ELINT system, which succeeded the Grab ELINT satellite system.

THORAD AGENA D DEB was lifted into orbit during the mission ‘Thorad SLV-2G Agena D | Poppy 8A,B,C,D’, on board a Thorad SLV-2G Agena D space rocket.

The launch took place on Sept. 30, 1969, 1:40 p.m. from Space Launch Complex 1W.

For more information about the launch, click the button.

Launch to space Thorad SLV-2G Agena D | Poppy 8A,B,C,D
Thorad SLV-2G Agena D | Poppy 8A,B,C,D

Agency: N/A

Status: Launch Successful

Launch date: Sept. 30, 1969, 1:40 p.m. UTC

Rocket: Thorad SLV-2G Agena D

Launch pad: Space Launch Complex 1W

Location: Vandenberg SFB, CA, USA

...

Latest news about this satellite

There are no fresh news available about this satellite. Check back as we update our databases every day.


Newsletter sign-up

Weekly statistics, charts and insights to help you stay on top of the space industry.